Powrót do katalogu

CZ-6A DEB

AktywnySSO
NORAD 54993·DEBRIS·🇨🇳 China

Wystrzelony Nov 11, 2022 z Taiyuan Satellite Launch Center

Loading…

Następne Przeloty (najbliższe 24 godziny)

TLE

ŚwieżeSource: Space-Track

Epoka: Sep 14, 2026, 16:56 UTC

1 54993U 22151UJ  26257.70580109  .00000573  00000-0  33687-3 0  9998
2 54993  98.8545 257.0582 0051896  88.3060 272.4055 14.11260553196407

Śledź CZ-6A DEB w czasie rzeczywistym z AllMySat

Download on the App Store